IWG002 LEVC-LEST

Flight info

Callsign IWG002
Flight time 1h 8m
Altitude 33000
Route CENTA N733 FORNO
Aircraft A20N/M-SDE2E3FGHIJ1RWXY/LB1

Departure

Time 2026-04-22 16:45
Airport Valencia Airport (LEVC)

Arrival

Time 2026-04-22 17:54
Airport Santiago-Rosalía de Castro Airport (LEST)
Time Latitude Longitude Altitude Speed Heading
2026-04-22 16:32 39.49023 -0.47283 207 ft 0 kts 18°
2026-04-22 16:38 39.49008 -0.47290 209 ft 2 kts 18°
2026-04-22 16:38 39.48993 -0.47296 212 ft 2 kts 18°
2026-04-22 16:38 39.48977 -0.47303 210 ft 2 kts 18°
2026-04-22 16:38 39.48962 -0.47309 209 ft 2 kts 18°
2026-04-22 16:39 39.48946 -0.47316 217 ft 2 kts 351°
2026-04-22 16:39 39.48935 -0.47310 209 ft 0 kts 298°
2026-04-22 16:40 39.48968 -0.47395 213 ft 15 kts 296°
2026-04-22 16:41 39.49022 -0.47537 214 ft 19 kts 296°
2026-04-22 16:41 39.49045 -0.47714 209 ft 21 kts 262°
2026-04-22 16:41 39.49044 -0.47912 214 ft 23 kts 289°
2026-04-22 16:41 39.49113 -0.48111 215 ft 25 kts 296°
2026-04-22 16:42 39.49193 -0.48320 215 ft 27 kts 296°
2026-04-22 16:42 39.49278 -0.48541 215 ft 28 kts 296°
2026-04-22 16:42 39.49367 -0.48774 214 ft 29 kts 297°
2026-04-22 16:42 39.49462 -0.49012 217 ft 31 kts 298°
2026-04-22 16:43 39.49555 -0.49266 212 ft 32 kts 293°
2026-04-22 16:43 39.49655 -0.49528 212 ft 33 kts 297°
2026-04-22 16:43 39.49753 -0.49795 218 ft 32 kts 297°
2026-04-22 16:43 39.49734 -0.49997 212 ft 0 kts 202°
2026-04-22 16:44 39.49733 -0.49997 213 ft 0 kts 202°
2026-04-22 16:44 39.49705 -0.50012 214 ft 9 kts 202°
2026-04-22 16:44 39.49606 -0.49931 211 ft 45 kts 118°
2026-04-22 16:45 39.49365 -0.49299 217 ft 109 kts 116°
2026-04-22 16:45 39.48961 -0.48212 219 ft 156 kts 111°
2026-04-22 16:45 39.48423 -0.46943 678 ft 159 kts 117°
2026-04-22 16:45 39.47835 -0.45723 1342 ft 160 kts 117°
2026-04-22 16:46 39.47356 -0.44446 1964 ft 163 kts 114°
2026-04-22 16:46 39.46750 -0.43103 2307 ft 183 kts 130°
2026-04-22 16:46 39.45760 -0.41918 2699 ft 205 kts 148°
2026-04-22 16:46 39.44317 -0.41419 3040 ft 230 kts 182°
2026-04-22 16:47 39.42729 -0.42067 3522 ft 254 kts 212°
2026-04-22 16:47 39.41518 -0.43775 4271 ft 263 kts 242°
2026-04-22 16:47 39.41096 -0.46071 5262 ft 267 kts 270°
2026-04-22 16:47 39.41541 -0.48411 6184 ft 273 kts 294°
2026-04-22 16:48 39.42557 -0.50476 7036 ft 278 kts 305°
2026-04-22 16:48 39.43775 -0.52440 7969 ft 280 kts 307°
2026-04-22 16:48 39.45019 -0.54390 8900 ft 282 kts 306°
2026-04-22 16:48 39.46248 -0.56389 9804 ft 285 kts 306°
2026-04-22 16:49 39.47484 -0.58441 10455 ft 297 kts 306°
2026-04-22 16:49 39.48777 -0.60623 10745 ft 320 kts 305°
2026-04-22 16:49 39.50158 -0.62987 11140 ft 336 kts 305°
2026-04-22 16:49 39.51569 -0.65415 11927 ft 339 kts 305°
2026-04-22 16:50 39.52996 -0.67874 12741 ft 342 kts 304°
2026-04-22 16:50 39.54434 -0.70362 13541 ft 346 kts 304°
2026-04-22 16:50 39.55888 -0.72875 14240 ft 350 kts 304°
2026-04-22 16:50 39.57365 -0.75427 14995 ft 352 kts 304°
2026-04-22 16:51 39.58846 -0.77987 15671 ft 356 kts 304°
2026-04-22 16:51 39.60321 -0.80542 16375 ft 359 kts 304°
2026-04-22 16:51 39.61834 -0.83165 17049 ft 363 kts 304°
2026-04-22 16:51 39.63336 -0.85771 17725 ft 366 kts 304°
2026-04-22 16:52 39.64877 -0.88444 18358 ft 370 kts 304°
2026-04-22 16:52 39.66371 -0.91042 18922 ft 373 kts 304°
2026-04-22 16:52 39.67916 -0.93731 19468 ft 377 kts 304°
2026-04-22 16:52 39.69503 -0.96492 20049 ft 380 kts 304°
2026-04-22 16:53 39.71014 -0.99288 20594 ft 383 kts 299°
2026-04-22 16:53 39.72326 -1.02284 21152 ft 385 kts 297°
2026-04-22 16:53 39.73656 -1.05352 21671 ft 389 kts 297°
2026-04-22 16:53 39.74996 -1.08425 22227 ft 392 kts 297°
2026-04-22 16:54 39.76355 -1.11539 22762 ft 396 kts 297°
2026-04-22 16:54 39.77719 -1.14666 23307 ft 399 kts 297°
2026-04-22 16:54 39.79080 -1.17797 23743 ft 403 kts 297°
2026-04-22 16:54 39.80463 -1.20980 24229 ft 404 kts 297°
2026-04-22 16:55 39.81851 -1.24181 24703 ft 406 kts 297°
2026-04-22 16:55 39.83228 -1.27361 25142 ft 409 kts 297°
2026-04-22 16:55 39.84628 -1.30597 25589 ft 411 kts 297°
2026-04-22 16:55 39.86036 -1.33853 26007 ft 414 kts 297°
2026-04-22 16:56 39.87451 -1.37128 26425 ft 416 kts 297°
2026-04-22 16:56 39.88873 -1.40424 26810 ft 418 kts 297°
2026-04-22 16:56 39.90300 -1.43735 27229 ft 420 kts 297°
2026-04-22 16:56 39.91739 -1.47080 27615 ft 423 kts 297°
2026-04-22 16:57 39.93166 -1.50396 27983 ft 425 kts 297°
2026-04-22 16:57 39.94628 -1.53798 28324 ft 428 kts 297°
2026-04-22 16:57 39.96078 -1.57174 28674 ft 430 kts 297°
2026-04-22 16:57 39.97544 -1.60592 29031 ft 432 kts 297°
2026-04-22 16:58 39.98517 -1.62863 29252 ft 433 kts 297°
2026-04-22 16:58 40.00488 -1.67469 29676 ft 437 kts 296°
2026-04-22 16:58 40.01975 -1.70949 30014 ft 439 kts 296°
2026-04-22 16:58 40.03453 -1.74410 30348 ft 440 kts 296°
2026-04-22 16:59 40.04946 -1.77913 30669 ft 441 kts 296°
2026-04-22 16:59 40.06422 -1.81379 31009 ft 442 kts 296°
2026-04-22 16:59 40.07921 -1.84902 31415 ft 440 kts 296°
2026-04-22 16:59 40.09390 -1.88359 31867 ft 438 kts 296°
2026-04-22 17:00 40.10866 -1.91837 32331 ft 435 kts 296°
2026-04-22 17:00 40.13783 -1.98720 32869 ft 431 kts 296°
2026-04-22 17:00 40.15238 -2.02161 32879 ft 430 kts 296°
2026-04-22 17:01 40.18135 -2.08962 32878 ft 431 kts 296°
2026-04-22 17:01 40.21064 -2.15835 32872 ft 431 kts 296°
2026-04-22 17:02 40.23953 -2.22689 32872 ft 431 kts 296°
2026-04-22 17:02 40.26821 -2.29544 32867 ft 431 kts 296°
2026-04-22 17:03 40.29704 -2.36445 32866 ft 431 kts 295°
2026-04-22 17:03 40.32578 -2.43333 32870 ft 431 kts 295°
2026-04-22 17:04 40.35440 -2.50209 32869 ft 431 kts 295°
2026-04-22 17:04 40.38311 -2.57168 32871 ft 432 kts 294°
2026-04-22 17:05 40.41044 -2.64154 32876 ft 432 kts 294°
2026-04-22 17:05 40.43777 -2.71167 32877 ft 432 kts 294°
2026-04-22 17:06 40.46530 -2.78209 32887 ft 434 kts 294°
2026-04-22 17:06 40.49282 -2.85255 32888 ft 435 kts 294°
2026-04-22 17:07 40.52042 -2.92335 32906 ft 436 kts 294°
2026-04-22 17:07 40.54795 -2.99416 32897 ft 434 kts 294°
2026-04-22 17:08 40.57551 -3.06525 32919 ft 436 kts 294°
2026-04-22 17:08 40.60303 -3.13637 32932 ft 436 kts 294°
2026-04-22 17:09 40.62908 -3.20386 32945 ft 437 kts 294°
2026-04-22 17:09 40.65677 -3.27578 32957 ft 438 kts 294°
2026-04-22 17:10 40.68427 -3.34737 32966 ft 439 kts 294°
2026-04-22 17:10 40.71189 -3.41943 32963 ft 440 kts 293°
2026-04-22 17:11 40.73924 -3.49096 33001 ft 441 kts 293°
2026-04-22 17:11 40.76684 -3.56334 33024 ft 441 kts 293°
2026-04-22 17:12 40.79434 -3.63564 33038 ft 442 kts 293°
2026-04-22 17:12 40.82205 -3.70867 33039 ft 443 kts 292°
2026-04-22 17:13 40.84944 -3.78104 33031 ft 444 kts 292°
2026-04-22 17:13 40.87716 -3.85445 33015 ft 444 kts 292°
2026-04-22 17:14 40.90451 -3.92708 32996 ft 445 kts 292°
2026-04-22 17:14 40.93230 -4.00106 32977 ft 445 kts 292°
2026-04-22 17:15 40.95975 -4.07430 32950 ft 446 kts 292°
2026-04-22 17:15 40.98719 -4.14773 32941 ft 446 kts 292°
2026-04-22 17:16 41.01458 -4.22114 32929 ft 446 kts 292°
2026-04-22 17:16 41.04197 -4.29472 32919 ft 446 kts 292°
2026-04-22 17:17 41.06945 -4.36872 32916 ft 446 kts 292°
2026-04-22 17:17 41.09665 -4.44215 32900 ft 446 kts 292°
2026-04-22 17:18 41.11937 -4.50363 32898 ft 446 kts 292°
2026-04-22 17:18 41.14662 -4.57753 32891 ft 446 kts 292°
2026-04-22 17:19 41.20105 -4.72579 32882 ft 447 kts 291°
2026-04-22 17:20 41.25538 -4.87459 32884 ft 448 kts 291°
2026-04-22 17:21 41.29611 -4.98666 32890 ft 449 kts 291°
2026-04-22 17:22 41.33664 -5.09861 32901 ft 450 kts 291°
2026-04-22 17:23 41.37728 -5.21133 32889 ft 450 kts 291°
2026-04-22 17:23 41.41787 -5.32433 32894 ft 450 kts 291°
2026-04-22 17:24 41.44483 -5.39965 32894 ft 450 kts 291°
2026-04-22 17:24 41.47181 -5.47523 32887 ft 450 kts 291°
2026-04-22 17:25 41.49870 -5.55073 32884 ft 450 kts 291°
2026-04-22 17:25 41.52552 -5.62570 32879 ft 452 kts 293°
2026-04-22 17:26 41.55871 -5.69386 32881 ft 456 kts 301°
2026-04-22 17:26 41.59509 -5.76323 32878 ft 456 kts 300°
2026-04-22 17:27 41.63136 -5.83276 32875 ft 455 kts 300°
2026-04-22 17:27 41.66740 -5.90195 32869 ft 455 kts 300°
2026-04-22 17:28 41.70353 -5.97145 32870 ft 455 kts 300°
2026-04-22 17:28 41.73965 -6.04106 32863 ft 455 kts 300°
2026-04-22 17:29 41.77573 -6.11078 32869 ft 455 kts 300°
2026-04-22 17:29 41.81173 -6.18049 32862 ft 455 kts 300°
2026-04-22 17:30 41.84768 -6.25026 32860 ft 454 kts 300°
2026-04-22 17:30 41.88360 -6.32022 32860 ft 455 kts 300°
2026-04-22 17:31 41.91948 -6.39032 32867 ft 455 kts 300°
2026-04-22 17:31 41.93716 -6.42483 32743 ft 452 kts 300°
2026-04-22 17:31 41.95521 -6.46011 32178 ft 453 kts 300°
2026-04-22 17:32 41.97310 -6.49516 31362 ft 456 kts 300°
2026-04-22 17:32 41.99108 -6.53046 30546 ft 458 kts 300°
2026-04-22 17:32 42.00879 -6.56520 30004 ft 454 kts 300°
2026-04-22 17:32 42.02649 -6.59991 29669 ft 443 kts 299°
2026-04-22 17:33 42.03821 -6.62292 29477 ft 441 kts 299°
2026-04-22 17:33 42.06122 -6.66832 29107 ft 445 kts 299°
2026-04-22 17:33 42.07862 -6.70267 28836 ft 443 kts 299°
2026-04-22 17:33 42.09595 -6.73689 28444 ft 440 kts 299°
2026-04-22 17:34 42.11314 -6.77085 27886 ft 438 kts 299°
2026-04-22 17:34 42.13018 -6.80454 27348 ft 433 kts 299°
2026-04-22 17:34 42.14705 -6.83796 26804 ft 428 kts 299°
2026-04-22 17:34 42.16372 -6.87102 26268 ft 424 kts 299°
2026-04-22 17:35 42.18016 -6.90366 25733 ft 420 kts 299°
2026-04-22 17:35 42.19635 -6.93587 25209 ft 416 kts 299°
2026-04-22 17:35 42.21256 -6.96814 24675 ft 412 kts 299°
2026-04-22 17:35 42.22862 -7.00017 24125 ft 410 kts 299°
2026-04-22 17:36 42.24458 -7.03201 23578 ft 407 kts 299°
2026-04-22 17:36 42.26033 -7.06352 23052 ft 403 kts 299°
2026-04-22 17:36 42.27580 -7.09451 22548 ft 398 kts 299°
2026-04-22 17:36 42.29126 -7.12542 22010 ft 394 kts 299°
2026-04-22 17:37 42.30639 -7.15567 21498 ft 390 kts 299°
2026-04-22 17:37 42.32152 -7.18598 20979 ft 386 kts 299°
2026-04-22 17:37 42.33644 -7.21588 20497 ft 383 kts 299°
2026-04-22 17:37 42.35133 -7.24580 19973 ft 380 kts 299°
2026-04-22 17:38 42.36604 -7.27534 19474 ft 378 kts 299°
2026-04-22 17:38 42.38066 -7.30476 18972 ft 376 kts 299°
2026-04-22 17:38 42.39524 -7.33413 18431 ft 376 kts 299°
2026-04-22 17:38 42.40976 -7.36339 17927 ft 373 kts 299°
2026-04-22 17:39 42.42420 -7.39251 17423 ft 371 kts 299°
2026-04-22 17:39 42.43851 -7.42141 16935 ft 369 kts 299°
2026-04-22 17:39 42.46507 -7.48016 15936 ft 360 kts 290°
2026-04-22 17:40 42.47397 -7.51112 15459 ft 354 kts 282°
2026-04-22 17:40 42.48033 -7.54308 14987 ft 350 kts 279°
2026-04-22 17:40 42.48657 -7.57491 14511 ft 349 kts 280°
2026-04-22 17:40 42.49283 -7.60654 14093 ft 346 kts 281°
2026-04-22 17:41 42.49902 -7.63793 13666 ft 343 kts 282°
2026-04-22 17:41 42.50519 -7.66909 13200 ft 341 kts 282°
2026-04-22 17:41 42.51128 -7.69997 12710 ft 337 kts 282°
2026-04-22 17:41 42.51730 -7.73046 12331 ft 331 kts 282°
2026-04-22 17:42 42.52312 -7.75987 12169 ft 313 kts 282°
2026-04-22 17:42 42.52861 -7.78772 12023 ft 297 kts 282°
2026-04-22 17:42 42.53382 -7.81422 11716 ft 287 kts 282°
2026-04-22 17:42 42.53888 -7.84012 11507 ft 279 kts 282°
2026-04-22 17:43 42.54376 -7.86507 11404 ft 268 kts 281°
2026-04-22 17:43 42.54846 -7.88915 11250 ft 261 kts 281°
2026-04-22 17:43 42.55302 -7.91258 10980 ft 257 kts 281°
2026-04-22 17:43 42.55752 -7.93562 10847 ft 248 kts 281°
2026-04-22 17:44 42.56189 -7.95810 10553 ft 247 kts 281°
2026-04-22 17:44 42.56625 -7.98061 10288 ft 246 kts 281°
2026-04-22 17:44 42.57059 -8.00302 10037 ft 244 kts 281°
2026-04-22 17:44 42.57490 -8.02526 9717 ft 243 kts 281°
2026-04-22 17:45 42.57912 -8.04719 9374 ft 243 kts 282°
2026-04-22 17:45 42.58342 -8.06945 9040 ft 243 kts 282°
2026-04-22 17:45 42.58771 -8.09160 8763 ft 241 kts 282°
2026-04-22 17:45 42.59190 -8.11316 8625 ft 231 kts 282°
2026-04-22 17:46 42.59599 -8.13417 8285 ft 230 kts 282°
2026-04-22 17:46 42.60007 -8.15535 7930 ft 232 kts 282°
2026-04-22 17:46 42.60409 -8.17642 7619 ft 230 kts 282°
2026-04-22 17:46 42.60816 -8.19746 7312 ft 231 kts 282°
2026-04-22 17:47 42.61225 -8.21863 6996 ft 231 kts 282°
2026-04-22 17:47 42.61628 -8.23970 6697 ft 231 kts 283°
2026-04-22 17:47 42.62022 -8.26045 6556 ft 226 kts 282°
2026-04-22 17:47 42.62409 -8.28077 6466 ft 218 kts 283°
2026-04-22 17:48 42.62664 -8.29389 6387 ft 213 kts 283°
2026-04-22 17:48 42.63420 -8.31774 6267 ft 209 kts 310°
2026-04-22 17:48 42.64610 -8.32961 6022 ft 213 kts 336°
2026-04-22 17:48 42.65995 -8.33622 5734 ft 209 kts 346°
2026-04-22 17:49 42.67392 -8.34087 5464 ft 202 kts 349°
2026-04-22 17:49 42.68741 -8.34526 5204 ft 200 kts 348°
2026-04-22 17:49 42.70089 -8.34983 4954 ft 205 kts 349°
2026-04-22 17:49 42.71463 -8.35434 4671 ft 199 kts 349°
2026-04-22 17:50 42.72805 -8.35883 4406 ft 197 kts 348°
2026-04-22 17:50 42.74099 -8.36311 4161 ft 187 kts 347°
2026-04-22 17:50 42.75349 -8.36738 3926 ft 183 kts 347°
2026-04-22 17:50 42.76552 -8.37133 3661 ft 171 kts 348°
2026-04-22 17:51 42.77655 -8.37505 3456 ft 160 kts 347°
2026-04-22 17:51 42.78734 -8.37861 3243 ft 161 kts 346°
2026-04-22 17:51 42.79816 -8.38224 3042 ft 159 kts 346°
2026-04-22 17:51 42.80881 -8.38582 2819 ft 155 kts 345°
2026-04-22 17:52 42.81892 -8.38919 2625 ft 143 kts 345°
2026-04-22 17:52 42.82817 -8.39229 2445 ft 134 kts 345°
2026-04-22 17:52 42.83733 -8.39538 2263 ft 137 kts 343°
2026-04-22 17:52 42.84629 -8.39837 2098 ft 133 kts 345°
2026-04-22 17:53 42.85533 -8.40140 1861 ft 127 kts 343°
2026-04-22 17:53 42.86417 -8.40437 1690 ft 134 kts 344°
2026-04-22 17:53 42.87318 -8.40740 1506 ft 131 kts 343°
2026-04-22 17:53 42.88202 -8.41033 1328 ft 127 kts 343°
2026-04-22 17:54 42.89079 -8.41324 1202 ft 124 kts 343°
2026-04-22 17:54 42.89650 -8.41518 1194 ft 34 kts 353°
2026-04-22 17:54 42.89851 -8.41590 1191 ft 25 kts 351°
2026-04-22 17:54 42.89969 -8.41631 1190 ft 12 kts 339°
2026-04-22 17:55 42.90016 -8.41669 1190 ft 11 kts 297°
2026-04-22 17:55 42.90007 -8.41780 1190 ft 10 kts 254°
2026-04-22 17:55 42.89962 -8.41847 1190 ft 9 kts 199°
2026-04-22 17:55 42.89896 -8.41829 1191 ft 11 kts 167°
2026-04-22 17:56 42.89820 -8.41806 1192 ft 12 kts 165°
2026-04-22 17:56 42.89733 -8.41784 1193 ft 9 kts 174°
2026-04-22 17:56 42.89711 -8.41806 1193 ft 14 kts 232°
2026-04-22 17:56 42.89700 -8.41895 1193 ft 0 kts 258°